seit 21:43 Uhr läuft: FM4 LA BOUM DE LUXE
ID Datum Zeit Zuhörer (Web) Show Song
321479 25.09 21:42 Uhr 267 La Boum De LuxeJOYCE MUNIZ INTERVIEW MIT DRUMAGICK (SAO PAULO/BR)
321478 25.09 21:03 Uhr 298 La Boum De LuxeFM4 LA BOUM DE LUXE: JOYCE MUNIZ & FRIENDS EPISODE 35
321477 25.09 21:00 Uhr 312 La Boum De LuxeFM4 LA BOUM DE LUXE (2 x gespielt) | Wiederholungen suchen
321476 25.09 20:57 Uhr 290 Top FM4SLIM WHITMAN - A FOOL SUCH AS I
321475 25.09 20:52 Uhr 304 Top FM4SEU JORGE - STARMAN
321474 25.09 20:48 Uhr 302 Top FM4FM4 TOP FM4 (7 x gespielt) | Wiederholungen suchen
321473 25.09 20:45 Uhr 309 Top FM4ANSA SAUERMANN - AL PACINO
321472 25.09 20:38 Uhr 310 Top FM4FRANZ BECKENBAUER - GUTE FREUNDE KANN NIEMAND TRENNEN
321471 25.09 20:34 Uhr 306 Top FM4FM4 TOP FM4 (7 x gespielt) | Wiederholungen suchen
321470 25.09 20:28 Uhr 317 Top FM4KHRUANGBIN - TIME (YOU AND I)
321469 25.09 20:18 Uhr 328 Top FM4LENT - 10
321468 25.09 20:16 Uhr 327 Top FM4FM4 TOP FM4 (7 x gespielt) | Wiederholungen suchen
321467 25.09 20:13 Uhr 332 Top FM4BLONDIE - DENIS
321466 25.09 20:03 Uhr 353 Top FM4THE ATARIS - THE BOYS OF SUMMER
321465 25.09 20:00 Uhr 368 Top FM4FM4 TOP FM4 (7 x gespielt) | Wiederholungen suchen
321464 25.09 19:58 Uhr 363 Top FM4PRINCESS NOKIA - SUGAR HONEY ICED TEA
321463 25.09 19:46 Uhr 380 Top FM4MONSTERHEART - FLOWERS
321462 25.09 19:39 Uhr 371 Top FM4FM4 TOP FM4 (7 x gespielt) | Wiederholungen suchen
321461 25.09 19:36 Uhr 393 Top FM4UDO JüRGENS - ABER BITTE MIT SAHNE
321460 25.09 19:23 Uhr 394 Top FM4MANIC YOUTH - DRUGS [LA VERSION]
321459 25.09 19:22 Uhr 393 Top FM4FM4 TOP FM4 (7 x gespielt) | Wiederholungen suchen
321458 25.09 19:17 Uhr 456 Top FM4FLEETWOOD MAC - THE CHAIN
321457 25.09 19:15 Uhr 443 Top FM4STEFFLON DON - MOVE
321456 25.09 19:07 Uhr 437 Top FM4LOVERBOY - TURN ME LOOSE
321455 25.09 19:04 Uhr 423 Top FM4FM4 TOP FM4 (7 x gespielt) | Wiederholungen suchen
321454 25.09 19:00 Uhr 402 Top FM4FM4 NEWS
321453 25.09 18:57 Uhr 433 ConnectedTHE FLAMING LIPS - MY RELIGION IS YOU
321452 25.09 18:52 Uhr 420 ConnectedBRIGHT EYES - ROAD TO JOY
321451 25.09 18:47 Uhr 425 ConnectedBULBUL - PUMPGUN JUDY (2 x gespielt) | Wiederholungen suchen
321450 25.09 18:44 Uhr 415 ConnectedSO KLINGT DAS AKTUELLE BULBUL ALBUM "KODAK DREAM"
321448 25.09 18:39 Uhr 412 ConnectedANE BRUN - DIRECTIONS (TORN RX)
321447 25.09 18:35 Uhr 419 ConnectedCHIKA - MY POWER (2 x gespielt) | Wiederholungen suchen
321445 25.09 18:29 Uhr 458 ConnectedKARMIC - SUMMERTIME'S GONE
321444 25.09 18:27 Uhr 450 ConnectedTHE GOON SAX - MAKE TIME 4 LOVE
321443 25.09 18:24 Uhr 439 ConnectedPIXIES - HEAR ME OUT
321441 25.09 18:20 Uhr 442 ConnectedPALASTIC FT. CONOR BYRNE - APOLLO
321440 25.09 18:17 Uhr 441 ConnectedPUBLIC ENEMY - STATE OF THE UNION
321439 25.09 18:13 Uhr 434 ConnectedNOTORIOUS B.I.G. - HYPNOTIZE
321437 25.09 18:07 Uhr 452 ConnectedNEW ORDER - BE A REBEL
321436 25.09 18:04 Uhr 445 ConnectedTHE CRISPIES - DEATH ROW
321435 25.09 18:00 Uhr 449 ConnectedFM4 NEWS
321434 25.09 17:57 Uhr 440 ConnectedSIAMESE ELEPHANTS - FISHBOWL
321433 25.09 17:53 Uhr 426 ConnectedINARA GEORGE FT. DAVE GROHL - SEX IN CARS: ROAD ANGEL PROJECT
321432 25.09 17:50 Uhr 454 ConnectedDAS TROJANISCHE PFERD - ICH WEIß, WO DU WOHNST
321430 25.09 17:46 Uhr 441 ConnectedLITTLE SIMZ - MIGHT BANG, MIGHT NOT
321429 25.09 17:44 Uhr 446 ConnectedWANDA - S.O.S.
321427 25.09 17:36 Uhr 480 ConnectedFOG - PNEUMONIA
321426 25.09 17:33 Uhr 438 ConnectedELA MINUS - MEGAPUNK
321424 25.09 17:28 Uhr 424 ConnectedHMLTD - LOADED
321423 25.09 17:25 Uhr 457 ConnectedSUNFLOWER BEAN - MOMENT IN THE SUN
321422 25.09 17:22 Uhr 448 ConnectedDAS DäNISCHE GAME "WELCOME TO ELK" IST KEIN GEWöHNLICHES ADV ...
321421 25.09 17:18 Uhr 445 ConnectedFLORENCE ARMAN - IN A HEARTBEAT
321420 25.09 17:15 Uhr 456 ConnectedVALENTIN HANSEN & MAVI PHOENIX - NOTHING NEW
321419 25.09 17:14 Uhr 460 ConnectedVALENTIN HANSEN üBER DIE ZUSAMMENARBEIT MIT MAVI PHOENIX
321417 25.09 17:10 Uhr 444 ConnectedMAVI PHOENIX - FCK IT UP
321416 25.09 17:07 Uhr 440 ConnectedA-TRAK FT JAMIE LIDELL - WE ALL FALL DOWN
321415 25.09 17:04 Uhr 495 ConnectedKINDER - AMVER (2 x gespielt) | Wiederholungen suchen
321413 25.09 17:00 Uhr 455 ConnectedFM4 NEWS
321412 25.09 16:58 Uhr 427 ConnectedBECCA MANCARI - LONELY BOY
321411 25.09 16:55 Uhr 453 ConnectedALL WE ARE - NOT YOUR MAN
321410 25.09 16:53 Uhr 421 ConnectedCLOSE UP: ENOLA HOLMES, DIE KLEINE SCHWESTER VON SHERLOCK
321408 25.09 16:48 Uhr 441 ConnectedH.E.R. - DO TO ME
321407 25.09 16:45 Uhr 440 ConnectedANT ANTIC - TIDES
321406 25.09 16:41 Uhr 432 ConnectedSTEVAN - IMPRESS YOU (2 x gespielt) | Wiederholungen suchen
321404 25.09 16:34 Uhr 456 ConnectedWALLNERS - IN MY MIND
321403 25.09 16:30 Uhr 459 ConnectedTHE BLACK KEYS - LO/HI
321402 25.09 16:27 Uhr 463 ConnectedROYAL BLOOD - TROUBLE'S COMING
321401 25.09 16:26 Uhr 454 ConnectedROYAL BLOOD üBER DEN NEUEN SOUND AUF IHRER SINGLE "TROUBLE'S ...
321399 25.09 16:23 Uhr 455 ConnectedCLOUDELVIS - DIAMOND RING
321398 25.09 16:20 Uhr 485 ConnectedDEICHKIND - RICHTIG GUTES ZEUG
321397 25.09 16:17 Uhr 438 ConnectedADAOLISA & MADL - MISS ME
321396 25.09 16:15 Uhr 488 ConnectedWAHLTAGEBUCH WIEN: DIE PANDEMIE IM WAHLKAMPF
321394 25.09 16:10 Uhr 500 ConnectedMYNTH - TULUM
321393 25.09 16:07 Uhr 495 ConnectedWALD - FIRMAMENT
321392 25.09 16:04 Uhr 491 ConnectedBEABADOOBEE - WORTH IT (2 x gespielt) | Wiederholungen suchen
321391 25.09 16:00 Uhr 491 ConnectedFM4 NEWS
321390 25.09 15:58 Uhr 474 ConnectedLOU ASRIL - HEAVEN
321389 25.09 15:54 Uhr 477 ConnectedSUFJAN STEVENS - GOODBYE TO ALL THAT
321388 25.09 15:51 Uhr 483 ConnectedSUFJAN STEVENS UND SEIN 8. ALBUM ?THE ASCENSION?
321386 25.09 15:44 Uhr 463 ConnectedEELS - BABY LET'S MAKE IT REAL
321385 25.09 15:41 Uhr 458 ConnectedGREEEN - LEBEN
321383 25.09 15:34 Uhr 472 ConnectedDAFFODILS FT. LUKAS MALETZKY - DON'T TURN YOUR BACK ON ME
321382 25.09 15:30 Uhr 465 ConnectedHEARTS HEARTS - RUB MY EYES (MOTSA RX)
321381 25.09 15:29 Uhr 474 ConnectedDIE HEARTS HEARTS SINGLE "RUB MY EYES" JETZT NEU IM MOTSA REMIX
321380 25.09 15:26 Uhr 485 ConnectedBERNHARD EDER & PETER PIEK - 91
321379 25.09 15:22 Uhr 462 ConnectedYUNO - SUNLIGHT
321378 25.09 15:18 Uhr 488 ConnectedPORRIDGE RADIO - 7 SECONDS
321377 25.09 15:17 Uhr 464 ConnectedFRIDAYS FOR FUTURE
321376 25.09 15:16 Uhr 487 ConnectedDER 6. WELTWEITE KLIMASTREIK IN ZEITEN VON CORONA
321374 25.09 15:11 Uhr 480 ConnectedMS DEF - 1,1 GRAD
321373 25.09 15:08 Uhr 470 ConnectedLUKAS POELLAUER FT. AUNTY - IT'S ALL GOOD
321372 25.09 15:04 Uhr 471 ConnectedGIVVEN - BLAMELESS
321370 25.09 15:00 Uhr 483 ConnectedFM4 NEWS
321369 25.09 14:05 Uhr 525 UnlimitedFM4 UNLIMITED
321368 25.09 14:04 Uhr 551 UnlimitedFM4 UNLIMITED MIT DJ FUNCTIONIST AM FREITAG
321367 25.09 14:02 Uhr 552 UnlimitedFM4 NEWS
321366 25.09 13:58 Uhr 539 You're At Home, Baby!FEIERTAG FT. JAMES ALEXANDER BRIGHT - IT'S ALRIGHT
321365 25.09 13:57 Uhr 540 You're At Home, Baby!FM4 YOU'RE AT HOME, BABY! (18 x gespielt) | Wiederholungen suchen
321364 25.09 13:55 Uhr 567 You're At Home, Baby!LEMONHEADS - IT`S ABOUT TIME
321363 25.09 13:52 Uhr 535 You're At Home, Baby!ACTION BRONSON - LATIN GRAMMYS
321362 25.09 13:48 Uhr 561 You're At Home, Baby!MICHAEL KIWANUKA - YOU AIN'T THE PROBLEM
321361 25.09 13:43 Uhr 552 You're At Home, Baby!THE CHEMICAL BROTHERS FT. Q-TIP - GALVANIZE
321360 25.09 13:42 Uhr 561 You're At Home, Baby!FM4 YOU'RE AT HOME, BABY! (18 x gespielt) | Wiederholungen suchen
321359 25.09 13:38 Uhr 559 You're At Home, Baby!KAMAIYAH FT. QUAVO & TYGA - WINDOWS
321358 25.09 13:34 Uhr 557 You're At Home, Baby!ORIGAMI PUNANI - UNTIL THE SUNLIGHT?S OUT
321357 25.09 13:30 Uhr 579 You're At Home, Baby!FM4 YOU'RE AT HOME, BABY! (18 x gespielt) | Wiederholungen suchen
321356 25.09 13:26 Uhr 591 You're At Home, Baby!OK KID - NUR WIR 3
321355 25.09 13:22 Uhr 564 You're At Home, Baby!TEMPLES - PARAPHERNALIA (2 x gespielt) | Wiederholungen suchen
321354 25.09 13:19 Uhr 591 You're At Home, Baby!FATAH AND HAMAS DEAL PAVES WAY FOR PALESTINIAN ELECTIONS
321353 25.09 13:18 Uhr 594 You're At Home, Baby!FM4 YOU'RE AT HOME, BABY! (18 x gespielt) | Wiederholungen suchen
321352 25.09 13:15 Uhr 576 You're At Home, Baby!CALL ME KAT - MOUTH OF TIME
321351 25.09 13:11 Uhr 579 You're At Home, Baby!PAULS JETS - BLIZZARD
321350 25.09 13:07 Uhr 577 You're At Home, Baby!TASH SULTANA - JUNGLE
321349 25.09 13:04 Uhr 499 You're At Home, Baby!SEEED - HALE-BOPP (2 x gespielt) | Wiederholungen suchen
321348 25.09 13:00 Uhr 540 You're At Home, Baby!FM4 NEWS
321347 25.09 12:57 Uhr 543 You're At Home, Baby!DAVID BOWIE - SCARY MONSTERS ( AND SUPER CREEPS )
321346 25.09 12:56 Uhr 542 You're At Home, Baby!FM4 YOU'RE AT HOME, BABY! (18 x gespielt) | Wiederholungen suchen
321345 25.09 12:52 Uhr 543 You're At Home, Baby!SUFJAN STEVENS - VIDEO GAME
321344 25.09 12:48 Uhr 589 You're At Home, Baby!BULBUL - GOING
321343 25.09 12:47 Uhr 570 You're At Home, Baby!FM4 YOU'RE AT HOME, BABY! (18 x gespielt) | Wiederholungen suchen
321342 25.09 12:46 Uhr 540 You're At Home, Baby!WARUM BULBUL EINEN PRODUZENTEN BRAUCHEN
321341 25.09 12:41 Uhr 533 You're At Home, Baby!CAPTAIN PLANET - BIG MAN FT. SHUNGUDZO
321340 25.09 12:38 Uhr 570 You're At Home, Baby!FM4 YOU'RE AT HOME, BABY! (18 x gespielt) | Wiederholungen suchen
321339 25.09 12:33 Uhr 548 You're At Home, Baby!NOIR DESIR - LE VENT NOUS PORTERA
321338 25.09 12:29 Uhr 613 You're At Home, Baby!PJ HARVEY - DOWN BY THE WATER
321337 25.09 12:28 Uhr 555 You're At Home, Baby!FM4 YOU'RE AT HOME, BABY! (18 x gespielt) | Wiederholungen suchen
321336 25.09 12:24 Uhr 588 You're At Home, Baby!CASSIUS / RYAN TEDDER / JAW - THE MISSING
321335 25.09 12:22 Uhr 598 You're At Home, Baby!ALEX THE FLIPPER - DONALD
321334 25.09 12:21 Uhr 578 You're At Home, Baby!FM4 YOU'RE AT HOME, BABY! (18 x gespielt) | Wiederholungen suchen
321333 25.09 12:18 Uhr 588 You're At Home, Baby!TRUMP VS THE REPUBLICAN PARTY: WILL THE CO-DEPENDENCY BREAK ...
321332 25.09 12:14 Uhr 578 You're At Home, Baby!MANU CHAO - RAININ' IN PARADISE
321331 25.09 12:12 Uhr 612 You're At Home, Baby!FM4 YOU'RE AT HOME, BABY! (18 x gespielt) | Wiederholungen suchen
321330 25.09 12:09 Uhr 575 You're At Home, Baby!NILüFER YANYA - HEAT RISES
321329 25.09 12:04 Uhr 552 You're At Home, Baby!JOVANOTTI - PENSO POSITIVO
321328 25.09 12:00 Uhr 561 You're At Home, Baby!FM4 NEWS
321327 25.09 11:58 Uhr 570 You're At Home, Baby!TEME TAN - CA VA PAS LA TETE
321326 25.09 11:55 Uhr 580 You're At Home, Baby!FM4 YOU'RE AT HOME, BABY! (18 x gespielt) | Wiederholungen suchen
321325 25.09 11:51 Uhr 541 You're At Home, Baby!YUNG HURN / RIN - BIANCO
321324 25.09 11:47 Uhr 641 You're At Home, Baby!FACES VS. MIRAC - DEEP DOWN
321323 25.09 11:44 Uhr 570 You're At Home, Baby!FM4 YOU'RE AT HOME, BABY! (18 x gespielt) | Wiederholungen suchen
321322 25.09 11:40 Uhr 608 You're At Home, Baby!JAZZANOVA FT. NOAH SLEE - SINCERE
321321 25.09 11:36 Uhr 616 You're At Home, Baby!OGRIS DEBRIS - AROUND HERE (SLOW JAM)
321320 25.09 11:33 Uhr 654 You're At Home, Baby!METALLICA & DJ SPOOKY - FOR WHOM THE BELL TOLLS
321319 25.09 11:25 Uhr 627 You're At Home, Baby!KARL MöSTL - ONE IS ONE
321318 25.09 11:24 Uhr 638 You're At Home, Baby!FM4 YOU'RE AT HOME, BABY! (18 x gespielt) | Wiederholungen suchen
321317 25.09 11:21 Uhr 614 You're At Home, Baby!EMPIRE OF THE SUN - ALIVE
321316 25.09 11:18 Uhr 604 You're At Home, Baby!SOAK - SEA CREATURES
321315 25.09 11:16 Uhr 600 You're At Home, Baby!THE STRANDED WHALES OF TASMANIA
321314 25.09 11:15 Uhr 624 You're At Home, Baby!FM4 YOU'RE AT HOME, BABY! (18 x gespielt) | Wiederholungen suchen
321313 25.09 11:12 Uhr 639 You're At Home, Baby!AT PAVILLON - BELIEVERS
321312 25.09 11:09 Uhr 616 You're At Home, Baby!SOPHIE HUNGER - EVERYTHING IS GOOD
321311 25.09 11:05 Uhr 612 You're At Home, Baby!GIRAFFAGE - WORKOUT
321310 25.09 11:04 Uhr 628 You're At Home, Baby!FM4 YOU'RE AT HOME, BABY! (18 x gespielt) | Wiederholungen suchen
321309 25.09 11:00 Uhr 637 You're At Home, Baby!FM4 NEWS
321308 25.09 10:57 Uhr 635 You're At Home, Baby!YEAH YEAH YEAHS - GOLD LION
321307 25.09 10:54 Uhr 654 You're At Home, Baby!BONAPARTE - CHâTEAU LAFITE
321306 25.09 10:50 Uhr 650 You're At Home, Baby!TEXTA - HEDI WARI
321305 25.09 10:47 Uhr 645 You're At Home, Baby!CHIKA - MY POWER (2 x gespielt) | Wiederholungen suchen
321304 25.09 10:45 Uhr 651 You're At Home, Baby!FM4 YOU'RE AT HOME, BABY! (18 x gespielt) | Wiederholungen suchen
321303 25.09 10:44 Uhr 648 You're At Home, Baby!FM4 TERMINKALENDER
321302 25.09 10:40 Uhr 628 You're At Home, Baby!BOY. - WE WERE HERE
321301 25.09 10:38 Uhr 643 You're At Home, Baby!ANGER - AB UND ZU
321300 25.09 10:34 Uhr 645 You're At Home, Baby!FM4 YOU'RE AT HOME, BABY! (18 x gespielt) | Wiederholungen suchen
321299 25.09 10:31 Uhr 648 You're At Home, Baby!ÄTNA - COME TO ME
321298 25.09 10:27 Uhr 654 You're At Home, Baby!MIRA LU KOVACS X OEHL - KERAMIK
321297 25.09 10:24 Uhr 674 You're At Home, Baby!JAKE BUGG - HOW SOON THE DAWN
321296 25.09 10:20 Uhr 648 You're At Home, Baby!KRUDER & DORFMEISTER - JOHNSON (FT ROBERT JOHNSON) (2 x gespielt) | Wiederholungen suchen
321295 25.09 10:17 Uhr 648 You're At Home, Baby!PRINCE - STARFISH AND COFFEE
321294 25.09 10:15 Uhr 645 You're At Home, Baby!FM4 YOU'RE AT HOME, BABY! (18 x gespielt) | Wiederholungen suchen
321293 25.09 10:11 Uhr 672 You're At Home, Baby!BINOCULERS - SAME SUN
321292 25.09 10:10 Uhr 663 You're At Home, Baby!SLEEP SLEEP - SONNET
321291 25.09 10:00 Uhr 654 You're At Home, Baby!FM4 NEWS
321290 25.09 09:57 Uhr 644 Morning ShowDJ SHADOW FT RUN THE JEWELS - NOBODY SPEAK
321289 25.09 09:53 Uhr 645 Morning ShowSANDRA KURZWEIL - MAD MEN
321288 25.09 09:50 Uhr 625 Morning ShowFM4 MORNING SHOW (20 x gespielt) | Wiederholungen suchen
321287 25.09 09:46 Uhr 646 Morning ShowSPACE ECHO - RAINBOW POWER
321286 25.09 09:44 Uhr 617 Morning ShowFLüSTERZWEIECK TRAUMTAGEBUCH: SUMMA IS UMMA
321285 25.09 09:43 Uhr 640 Morning ShowFM4 MORNING SHOW (20 x gespielt) | Wiederholungen suchen
321284 25.09 09:41 Uhr 611 Morning ShowCHANCE THE RAPPER FT. KNOX FORTUNE - ALL NIGHT
321283 25.09 09:37 Uhr 634 Morning ShowMETRO BOOMIN & J. BALVIN - ONLY YOU (FT WIZ KID & OFFSET)
321282 25.09 09:34 Uhr 640 Morning ShowTAME IMPALA - IS IT TRUE (2 x gespielt) | Wiederholungen suchen
321281 25.09 09:33 Uhr 619 Morning ShowFM4 MORNING SHOW (20 x gespielt) | Wiederholungen suchen
321280 25.09 09:31 Uhr 600 Morning ShowFM4 NEWS
321279 25.09 09:28 Uhr 625 Morning ShowSUPERFOOD - I CAN'T SEE
321278 25.09 09:24 Uhr 647 Morning ShowPOLICA - LIME HABIT
321277 25.09 09:21 Uhr 636 Morning ShowANDERSON .PAAK - CUT EM IN (FEAT. RICK ROSS)
321276 25.09 09:14 Uhr 599 Morning ShowMITSKI - NOBODY
321275 25.09 09:10 Uhr 610 Morning ShowFM4 MORNING SHOW (20 x gespielt) | Wiederholungen suchen
321274 25.09 09:07 Uhr 639 Morning ShowARCTIC MONKEYS - SNAP OUT OF IT
321273 25.09 09:04 Uhr 566 Morning ShowTHE BONGO CLUB - WHAT YOU WANT US TO BE
321272 25.09 09:03 Uhr 629 Morning ShowFM4 MORNING SHOW (20 x gespielt) | Wiederholungen suchen
321271 25.09 09:00 Uhr 660 Morning ShowFM4 NEWS
321270 25.09 08:56 Uhr 622 Morning ShowVOODOO JüRGENS - 3 GSCHICHTN AUSN CAFE FESCH
321269 25.09 08:53 Uhr 632 Morning ShowKOFFEE - TOAST
321268 25.09 08:52 Uhr 606 Morning ShowFM4 MORNING SHOW (20 x gespielt) | Wiederholungen suchen
321267 25.09 08:48 Uhr 626 Morning ShowFEIST FT JARVIS COCKER - CENTURY
321266 25.09 08:45 Uhr 610 Morning ShowLOU REED - ANDY'S CHEST
321265 25.09 08:44 Uhr 546 Morning ShowFM4 MORNING SHOW (20 x gespielt) | Wiederholungen suchen
321264 25.09 08:43 Uhr 607 Morning ShowDAS MUMOK IN WIEN ZEIGT EINE ANDY WARHOL AUSSTELLUNG
321263 25.09 08:39 Uhr 586 Morning ShowFILOUS & THE KOOKS - HEY LOVE
321262 25.09 08:36 Uhr 591 Morning ShowJACK PENATE - MURDER
321261 25.09 08:33 Uhr 601 Morning ShowNOGA EREZ - YOU SO DONE
321260 25.09 08:30 Uhr 596 Morning ShowFM4 NEWS
321259 25.09 08:28 Uhr 594 Morning ShowFM4 MORNING SHOW (20 x gespielt) | Wiederholungen suchen
321258 25.09 08:23 Uhr 559 Morning ShowJESSIE WARE - WHAT'S YOUR PLEASURE
321257 25.09 08:19 Uhr 610 Morning ShowJAMIE XX - I KNOW THERE'S GONNA BE (GOOD TIMES)
321256 25.09 08:16 Uhr 605 Morning ShowSHARKTANK - WASHED UP
321255 25.09 08:14 Uhr 550 Morning ShowKARIM EL-GAWHARY HAT EIN BUCH üBER DEN ARABISCHEN FRüHLING G ...
321254 25.09 08:13 Uhr 568 Morning ShowFM4 MORNING SHOW (20 x gespielt) | Wiederholungen suchen
321253 25.09 08:11 Uhr 550 Morning ShowVAMPIRE WEEKEND - DIANE YOUNG
321252 25.09 08:07 Uhr 563 Morning ShowSTEAMING SATELLITES - RUNNING OUT OF TIME
321251 25.09 08:06 Uhr 544 Morning ShowFM4 MORNING SHOW (20 x gespielt) | Wiederholungen suchen
321250 25.09 08:01 Uhr 581 Morning ShowFM4 NEWS
321249 25.09 07:56 Uhr 559 Morning ShowDERO & KLUMZY FT. DAVID SLADEK - DIFFERENT (JIM DUNLOOP RX)
321248 25.09 07:55 Uhr 577 Morning ShowFM4 MORNING SHOW (20 x gespielt) | Wiederholungen suchen
321247 25.09 07:51 Uhr 566 Morning ShowDOJA CAT - FREAK
321246 25.09 07:49 Uhr 573 Morning ShowFM4 OMBUDSMANN: "KäLTEKAMMER"
321245 25.09 07:46 Uhr 537 Morning ShowPORTUGAL THE MAN - TOMORROW (FROM AT HOME WITH THE KIDS)
321244 25.09 07:43 Uhr 501 Morning ShowCAMELPHAT FT. YANNIS PHILIPPAKIS - HYPERCOLOUR
321243 25.09 07:40 Uhr 504 Morning ShowFM4 MORNING SHOW (20 x gespielt) | Wiederholungen suchen
321242 25.09 07:36 Uhr 527 Morning ShowFLUT - ZUR ZEIT
321241 25.09 07:33 Uhr 533 Morning ShowFRIEDBERG - GO WILD
321240 25.09 07:31 Uhr 516 Morning ShowFM4 NEWS
321239 25.09 07:24 Uhr 502 Morning ShowPAUL EPWORTH FT. ISHMAEL - SPACE INC. (VISUALISER)
321238 25.09 07:23 Uhr 503 Morning ShowFM4 MORNING SHOW (20 x gespielt) | Wiederholungen suchen
321237 25.09 07:20 Uhr 492 Morning ShowELDERBROOK - CAPRICORN
321236 25.09 07:16 Uhr 482 Morning ShowROISIN MURPHY - MURPHY'S LAW
321235 25.09 07:14 Uhr 507 Morning ShowSERIOUSLY: CHRISTIAN LEHNER FRAGT ROISIN MURPHY
321234 25.09 07:13 Uhr 475 Morning ShowFM4 MORNING SHOW (20 x gespielt) | Wiederholungen suchen
321233 25.09 07:10 Uhr 489 Morning ShowSUNFLOWER BEAN - WALL WATCHER
321232 25.09 07:07 Uhr 476 Morning ShowTHE WOMBATS - LEMON TO A KNIFE FIGHT
321231 25.09 07:06 Uhr 446 Morning ShowFM4 MORNING SHOW (20 x gespielt) | Wiederholungen suchen
321230 25.09 07:01 Uhr 442 Morning ShowFM4 NEWS
321229 25.09 06:58 Uhr 417 Morning ShowKREIML & SAMURAI - GANZ WIEN
321228 25.09 06:55 Uhr 379 Morning ShowDIVES - SHRIMP
321227 25.09 06:51 Uhr 390 Morning ShowBULBUL - PUMPGUN JUDY (2 x gespielt) | Wiederholungen suchen
321226 25.09 06:50 Uhr 356 Morning ShowBULBUL üBER DEN SONG "PUMPGUN JUDY"
321225 25.09 06:49 Uhr 324 Morning ShowFM4 MORNING SHOW (20 x gespielt) | Wiederholungen suchen
321224 25.09 06:45 Uhr 377 Morning ShowCHVRCHES - GET OUT
321223 25.09 06:41 Uhr 365 Morning ShowM.I.A. - BUCKY DONE GUN
321222 25.09 06:38 Uhr 306 Morning ShowKAUL KWAPPEN - ICH MUSS GAR NIX
321221 25.09 06:34 Uhr 283 Morning ShowGIRL IN RED - RUE
321220 25.09 06:33 Uhr 278 Morning ShowFM4 MORNING SHOW (20 x gespielt) | Wiederholungen suchen
321219 25.09 06:31 Uhr 283 Morning ShowFM4 NEWS
321218 25.09 06:24 Uhr 276 Morning ShowTHE S.L.P. - NOBODY ELSE
321217 25.09 06:23 Uhr 250 Morning ShowFM4 MORNING SHOW (20 x gespielt) | Wiederholungen suchen
321216 25.09 06:20 Uhr 233 Morning ShowCOSMO SHELDRAKE - COME ALONG
321215 25.09 06:17 Uhr 247 Morning ShowAEL DEEN & ADA - IN DEINER HAND
321214 25.09 06:15 Uhr 200 Morning ShowIM GAME PENDRAGON WIRD DIE ARTUSSAGE NEU GESCHRIEBEN
321213 25.09 06:13 Uhr 211 Morning ShowFM4 MORNING SHOW (20 x gespielt) | Wiederholungen suchen
321212 25.09 06:10 Uhr 195 Morning ShowMARCUS MARR - ROCKET SHIP
321211 25.09 06:07 Uhr 188 Morning ShowST. VINCENT - DIGITAL WITNESS
321210 25.09 06:04 Uhr 184 Morning ShowSWIM DEEP - NAMASTE
321209 25.09 06:03 Uhr 168 Morning ShowFM4 MORNING SHOW (20 x gespielt) | Wiederholungen suchen
321208 25.09 06:00 Uhr 232 Morning ShowFM4 NEWS
321207 25.09 05:56 Uhr 168 SleeplessTAME IMPALA - IS IT TRUE (2 x gespielt) | Wiederholungen suchen
321206 25.09 05:54 Uhr 179 SleeplessRAMBO RAMBO RAMBO - THE LADIES
321205 25.09 05:50 Uhr 138 SleeplessTHE DECEMBERISTS - DOWN ON THE KNUCKLE
321204 25.09 05:47 Uhr 150 SleeplessMUZZ - RED WESTERN SKY
321203 25.09 05:46 Uhr 150 SleeplessFM4 SLEEPLESS (11 x gespielt) | Wiederholungen suchen
321202 25.09 05:43 Uhr 126 SleeplessELIS NOA - TELL ME I'M LYING
321201 25.09 05:40 Uhr 139 SleeplessWHTAMESS FT. AZE - SUNNY DAYS
321200 25.09 05:38 Uhr 122 SleeplessSKINNY B - YOUNG PICASSO
321199 25.09 05:37 Uhr 122 SleeplessFM4 SLEEPLESS (11 x gespielt) | Wiederholungen suchen
321198 25.09 05:34 Uhr 148 SleeplessFOREIGN AIR - FREE ANIMAL
321197 25.09 05:30 Uhr 143 SleeplessLOLA MARSH - YOU'RE MINE
321196 25.09 05:29 Uhr 137 SleeplessFM4 SLEEPLESS (11 x gespielt) | Wiederholungen suchen
321195 25.09 05:25 Uhr 142 SleeplessBRUCH - TAKE ME HOME VIENNA
321194 25.09 05:22 Uhr 128 SleeplessART BRUT - HOSPITAL
321193 25.09 05:19 Uhr 116 SleeplessPETRA UND DER WOLF - STORIES ON SALE
321192 25.09 05:18 Uhr 128 SleeplessFM4 SLEEPLESS (11 x gespielt) | Wiederholungen suchen
321191 25.09 05:14 Uhr 111 SleeplessARCADE FIRE - AFTERLIFE
321190 25.09 05:10 Uhr 123 SleeplessJUNIP - YOUR LIFE YOUR CALL
321189 25.09 05:07 Uhr 114 SleeplessKINDER - AMVER (2 x gespielt) | Wiederholungen suchen
321188 25.09 05:06 Uhr 116 SleeplessFM4 SLEEPLESS (11 x gespielt) | Wiederholungen suchen
321187 25.09 05:03 Uhr 142 SleeplessSEEED - HALE-BOPP (2 x gespielt) | Wiederholungen suchen
321186 25.09 05:00 Uhr 108 SleeplessNIHILS - CAN'T GIVE
321185 25.09 04:56 Uhr 137 Sound Selection ClassicSCHöNHEITSFEHLER - GUTES GLüCK SCHLECHTES GLüCK
321184 25.09 04:52 Uhr 118 Sound Selection ClassicSEBOKILL / VEARZ / DEE SANDRA - DIE SUN STEHT TIAF
321183 25.09 04:49 Uhr 101 Sound Selection ClassicLA CHERGA - LAJKA
321182 25.09 04:46 Uhr 105 Sound Selection ClassicSCHMIEDS PULS - JOY
321181 25.09 04:45 Uhr 122 Sound Selection ClassicFM4 SOUND SELECTION CLASSIC (3 x gespielt) | Wiederholungen suchen
321180 25.09 04:41 Uhr 116 Sound Selection ClassicAPHRODELICS - ROLLIN' ON CHROME
321179 25.09 04:39 Uhr 122 Sound Selection ClassicATTWENGER - KANA DAHAM
321178 25.09 04:36 Uhr 100 Sound Selection ClassicLADY LESHURR / MIRAC - TAKE IT BACK
321177 25.09 04:32 Uhr 104 Sound Selection ClassicTHE WAZ EXPERIENCE FT. MR. KJU - ORCHID (AUDITIVE COSMOS RX)
321176 25.09 04:28 Uhr 118 Sound Selection ClassicM185 - NOT IN LOVE
321175 25.09 04:25 Uhr 134 Sound Selection ClassicCATASTROPHE & CURE - DEBBIE DEBRIS
321174 25.09 04:20 Uhr 105 Sound Selection ClassicMOLLY - FOUNTAIN OF YOUTH
321173 25.09 04:16 Uhr 113 Sound Selection ClassicVIVIN - CRYPTIC
321172 25.09 04:13 Uhr 99 Sound Selection ClassicDOSSA & LOCUZZED FT.PATCH EDISON - BLINDED (MILLBROOK RX)
321171 25.09 04:09 Uhr 94 Sound Selection ClassicPTAH & CON - FAST BIS INS ALL
321170 25.09 04:07 Uhr 92 Sound Selection ClassicSKERO FT. MONOBROTHER - KOPF IM GNACK
321169 25.09 04:03 Uhr 95 Sound Selection ClassicMAVI PHOENIX - QUIET
321168 25.09 04:01 Uhr 100 Sound Selection ClassicSALUTE - STORM
321167 25.09 04:00 Uhr 113 Sound Selection ClassicFM4 SOUND SELECTION CLASSIC (3 x gespielt) | Wiederholungen suchen
321166 25.09 03:57 Uhr 112 Sound Selection ClassicFACES ON TV - LOVE DEAD
321165 25.09 03:53 Uhr 110 Sound Selection ClassicBEYOND THE WIZARDS SLEEVE - BLACK CROW
321164 25.09 03:50 Uhr 111 Sound Selection ClassicCIGARETTES AFTER SEX - APOCALYPSE
321163 25.09 03:45 Uhr 105 Sound Selection ClassicJUNIUS MEYVANT - COLOR DECAY
321162 25.09 03:42 Uhr 119 Sound Selection ClassicDMA'S - LAY DOWN
321161 25.09 03:38 Uhr 98 Sound Selection ClassicTWO DOOR CINEMA CLUB - ARE WE READY (WRECK)
321160 25.09 03:34 Uhr 108 Sound Selection ClassicGLASS ANIMALS - YOUTH
321159 25.09 03:30 Uhr 110 Sound Selection ClassicBANKS & STEELZ FT FLORENCE WELSH - WILD SEASON
321158 25.09 03:26 Uhr 93 Sound Selection ClassicMARTERIA FT TEUTILLA - ALIENS
321157 25.09 03:24 Uhr 110 Sound Selection ClassicCOLDCUT X ON U SOUND FT. ROOTS MANUVA - VITALS
321156 25.09 03:20 Uhr 98 Sound Selection ClassicKENDRICK LAMAR & THE WEEKND - PRAY FOR ME
321155 25.09 03:17 Uhr 114 Sound Selection ClassicSOHN - ARTIFICE
321154 25.09 03:13 Uhr 96 Sound Selection ClassicKATE BOY - NORTHERN LIGHTS
321153 25.09 03:10 Uhr 112 Sound Selection ClassicCUT_ - TUNE IN TUNE OUT
321152 25.09 03:07 Uhr 110 Sound Selection ClassicMORGXN - HOME
321151 25.09 03:03 Uhr 123 Sound Selection ClassicALABAMA SHAKES - DON'T WANNA FIGHT
321150 25.09 03:00 Uhr 120 Sound Selection ClassicBETH DITTO - FIRE
321149 25.09 02:59 Uhr 111 SleeplessFM4 SOUND SELECTION CLASSIC (3 x gespielt) | Wiederholungen suchen
321148 25.09 02:57 Uhr 117 SleeplessKE'REM - REMEDY
321147 25.09 02:53 Uhr 102 SleeplessDZIHAN & KAMIEN - 99 (FT. JAHSON THE SCIENTIST)
321146 25.09 02:49 Uhr 106 SleeplessKRUDER & DORFMEISTER - JOHNSON (FT ROBERT JOHNSON) (2 x gespielt) | Wiederholungen suchen
321145 25.09 02:45 Uhr 115 SleeplessALEX THE FLIPPER - CLASSIC (AUGENWISCHER)
321144 25.09 02:41 Uhr 111 SleeplessFRANK OCEAN - LOST
321143 25.09 02:38 Uhr 110 SleeplessRO BERGMAN - YES YEAH
321142 25.09 02:37 Uhr 104 SleeplessFM4 SLEEPLESS (11 x gespielt) | Wiederholungen suchen
321141 25.09 02:33 Uhr 100 SleeplessSAULT FT. MICHAEL KIWANUKA - BOW
321140 25.09 02:30 Uhr 100 SleeplessKHRUANGBIN - PELOTA
321139 25.09 02:26 Uhr 103 SleeplessCLUB 8 - BABY, I'M NOT SURE IF THIS IS LOVE
321138 25.09 02:23 Uhr 107 SleeplessSOFT PLASTIC - RAINBOWS
321137 25.09 02:18 Uhr 107 SleeplessVAGUE - VACATION
321136 25.09 02:14 Uhr 123 SleeplessMONEYBROTHER - THEY'RE BUILDING WALLS AROUND US
321135 25.09 02:12 Uhr 100 SleeplessHOT CHIP - I FEEL BETTER
321134 25.09 02:08 Uhr 107 SleeplessTEMPLES - PARAPHERNALIA (2 x gespielt) | Wiederholungen suchen
321133 25.09 02:07 Uhr 109 SleeplessFM4 SLEEPLESS (11 x gespielt) | Wiederholungen suchen
321132 25.09 02:04 Uhr 114 SleeplessVIOLETTA PARISINI - THE BLACKEST COFFEE (SIXTUS PREISS RX)
321131 25.09 02:01 Uhr 110 SleeplessTHNK PNK, KAREEM PFEIFER, ELI PREISS - LONELY
321130 25.09 01:58 Uhr 109 SleeplessSTORMZY - SUPERHEROES
321129 25.09 01:55 Uhr 99 SleeplessGOLDSTONE - ALL I KNOW
321128 25.09 01:52 Uhr 113 SleeplessVELAR PRANA - GOOD TIME
321127 25.09 01:50 Uhr 104 SleeplessBETA BOW - SECOND STREETS HAVE NO NAME
321126 25.09 01:49 Uhr 120 SleeplessFM4 SLEEPLESS (11 x gespielt) | Wiederholungen suchen
321125 25.09 01:45 Uhr 126 SleeplessLUKE DANFIELD - DEEPER WATERS
321124 25.09 01:41 Uhr 117 SleeplessEUROTEURO - SAG ALLES AB
321123 25.09 01:38 Uhr 120 SleeplessSLOWTHAI FT JAMES BLAKE & MOUNT KIMBIE - FEEL AWAY
321122 25.09 01:37 Uhr 115 SleeplessFM4 SLEEPLESS (11 x gespielt) | Wiederholungen suchen
321121 25.09 01:33 Uhr 108 SleeplessHAIM - THE STEPS
321120 25.09 01:27 Uhr 106 SleeplessBEABADOOBEE - WORTH IT (2 x gespielt) | Wiederholungen suchen
321119 25.09 01:24 Uhr 124 SleeplessTEAM ME - THE ALL TIME HIGH
321118 25.09 01:21 Uhr 102 SleeplessGET WELL SOON - YOU/ AURORA/ YOU/ SEASIDE
321117 25.09 01:18 Uhr 114 SleeplessTOMBADOUR FT. YASMO - WIEN
321116 25.09 01:17 Uhr 109 SleeplessFM4 SLEEPLESS (11 x gespielt) | Wiederholungen suchen
321115 25.09 01:13 Uhr 126 SleeplessPILOTS ON DOPE - ISTO E SAMBA (STEREOTYP RMX)
321114 25.09 01:09 Uhr 126 SleeplessD-KAY & EPSILON - BARCELONA
321113 25.09 01:06 Uhr 97 SleeplessSTEVAN - IMPRESS YOU (2 x gespielt) | Wiederholungen suchen
321112 25.09 01:05 Uhr 99 SleeplessFM4 SLEEPLESS (11 x gespielt) | Wiederholungen suchen
321111 25.09 01:02 Uhr 114 SleeplessLIZZO - BOYS
321110 25.09 00:58 Uhr 110 Projekt XBETH EDGES - PURE DYNAMITE
321109 25.09 00:56 Uhr 111 Projekt XOSKA - SOMEBODY
321108 25.09 00:02 Uhr 137 Projekt XFM4 PROJEKT X